Time,TemperatureF,DewpointF,PressureIn,WindDirection,WindDirectionDegrees,WindSpeedMPH,WindSpeedGustMPH,Humidity,HourlyPrecipIn,Conditions,Clouds,dailyrainin,SoftwareType,DateUTC
2013-12-08 00:22:00,30.0,24.0,30.22,West,260,1.0,8.0,78,0.00,,,0.02,,2013-12-08 08:22:00,
2013-12-08 00:42:00,29.0,23.0,30.21,West,267,4.0,6.0,79,0.00,,,0.02,,2013-12-08 08:42:00,
2013-12-08 00:52:00,29.0,24.0,30.21,West,266,4.0,8.0,80,0.00,,,0.02,,2013-12-08 08:52:00,
2013-12-08 01:21:00,28.0,23.0,30.22,North,0,0.0,3.0,80,0.00,,,0.02,,2013-12-08 09:21:00,
2013-12-08 01:43:00,27.0,22.0,30.22,North,0,0.0,3.0,80,0.00,,,0.02,,2013-12-08 09:43:00,
2013-12-08 01:53:00,26.0,21.0,30.23,SE,125,1.0,5.0,82,0.00,,,0.02,,2013-12-08 09:53:00,
2013-12-08 02:43:00,25.0,21.0,30.22,SE,136,2.0,3.0,84,0.00,,,0.02,,2013-12-08 10:43:00,
2013-12-08 02:53:00,25.0,21.0,30.22,SE,129,1.0,4.0,84,0.00,,,0.02,,2013-12-08 10:53:00,
2013-12-08 03:22:00,25.0,21.0,30.22,SSW,201,2.0,5.0,86,0.00,,,0.02,,2013-12-08 11:22:00,
2013-12-08 03:52:00,25.0,22.0,30.23,SW,227,1.0,4.0,87,0.00,,,0.02,,2013-12-08 11:52:00,
2013-12-08 04:22:00,26.0,23.0,30.24,SW,228,2.0,5.0,88,0.00,,,0.02,,2013-12-08 12:22:00,
2013-12-08 04:52:00,25.0,22.0,30.23,North,0,0.0,3.0,89,0.00,,,0.02,,2013-12-08 12:52:00,
2013-12-08 05:21:00,22.0,19.0,30.24,SE,139,3.0,5.0,87,0.00,,,0.02,,2013-12-08 13:21:00,
2013-12-08 05:52:00,23.0,20.0,30.24,South,187,1.0,4.0,89,0.00,,,0.02,,2013-12-08 13:52:00,
2013-12-08 06:22:00,24.0,21.0,30.24,SW,229,2.0,5.0,89,0.00,,,0.02,,2013-12-08 14:22:00,
2013-12-08 06:52:00,22.0,19.0,30.26,North,0,0.0,3.0,89,0.00,,,0.01,,2013-12-08 14:52:00,
2013-12-08 07:53:00,23.0,21.0,30.28,SSE,165,3.0,4.0,90,0.00,,,0.01,,2013-12-08 15:53:00,
2013-12-08 08:23:00,25.0,23.0,30.28,SSW,195,1.0,4.0,91,0.00,,,0.00,,2013-12-08 16:23:00,
2013-12-08 08:43:00,27.0,25.0,30.28,South,181,2.0,4.0,92,0.00,,,0.00,,2013-12-08 16:43:00,
2013-12-08 08:53:00,29.0,27.0,30.29,SSW,197,1.0,5.0,92,0.00,,,0.00,,2013-12-08 16:53:00,
2013-12-08 09:22:00,31.0,28.0,30.30,WNW,286,2.0,3.0,87,0.00,,,0.00,,2013-12-08 17:22:00,
2013-12-08 09:42:00,32.0,28.0,30.31,NW,307,1.0,3.0,84,0.00,,,0.00,,2013-12-08 17:42:00,
2013-12-08 09:52:00,33.0,28.0,30.30,NNW,338,1.0,2.0,83,0.00,,,0.00,,2013-12-08 17:52:00,
2013-12-08 10:21:00,36.0,30.0,30.31,NNW,336,2.0,5.0,80,0.00,,,0.00,,2013-12-08 18:21:00,
2013-12-08 10:42:00,38.0,32.0,30.30,NNW,330,4.0,8.0,78,0.00,,,0.00,,2013-12-08 18:42:00,
2013-12-08 10:52:00,39.0,32.0,30.29,WNW,301,3.0,8.0,75,0.00,,,0.00,,2013-12-08 18:52:00,
2013-12-08 11:22:00,41.0,33.0,30.29,NNW,347,5.0,8.0,73,0.00,,,0.00,,2013-12-08 19:22:00,
2013-12-08 11:42:00,42.0,33.0,30.28,North,354,3.0,7.0,71,0.00,,,0.00,,2013-12-08 19:42:00,
2013-12-08 11:52:00,43.0,34.0,30.27,North,6,2.0,7.0,69,0.00,,,0.00,,2013-12-08 19:52:00,
2013-12-08 12:21:00,45.0,35.0,30.26,North,357,5.0,8.0,68,0.00,,,0.00,,2013-12-08 20:21:00,
2013-12-08 12:42:00,45.0,35.0,30.26,North,351,6.0,11.0,67,0.00,,,0.00,,2013-12-08 20:42:00,
2013-12-08 12:52:00,44.0,34.0,30.25,NNE,15,4.0,8.0,68,0.00,,,0.00,,2013-12-08 20:52:00,
2013-12-08 13:22:00,45.0,34.0,30.25,NNE,20,5.0,9.0,65,0.00,,,0.00,,2013-12-08 21:22:00,
2013-12-08 13:53:00,45.0,34.0,30.23,NNE,22,4.0,7.0,64,0.00,,,0.00,,2013-12-08 21:53:00,
2013-12-08 14:23:00,46.0,33.0,30.23,North,3,4.0,9.0,60,0.00,,,0.00,,2013-12-08 22:23:00,
2013-12-08 14:43:00,46.0,32.0,30.22,NNE,29,3.0,8.0,59,0.00,,,0.00,,2013-12-08 22:43:00,
2013-12-08 14:53:00,46.0,32.0,30.22,NNE,30,3.0,7.0,58,0.00,,,0.00,,2013-12-08 22:53:00,
2013-12-08 15:22:00,47.0,30.0,30.21,NNW,340,2.0,6.0,52,0.00,,,0.00,,2013-12-08 23:22:00,
2013-12-08 15:52:00,47.0,29.0,30.21,NE,52,2.0,9.0,50,0.00,,,0.00,,2013-12-08 23:52:00,
2013-12-08 16:21:00,46.0,29.0,30.21,NNE,29,3.0,5.0,51,0.00,,,0.00,,2013-12-09 00:21:00,
2013-12-08 16:52:00,45.0,29.0,30.21,NNE,25,1.0,3.0,53,0.00,,,0.00,,2013-12-09 00:52:00,
2013-12-08 17:21:00,43.0,28.0,30.22,NNE,25,1.0,2.0,56,0.00,,,0.00,,2013-12-09 01:21:00,
2013-12-08 17:52:00,41.0,29.0,30.22,North,0,0.0,0.0,62,0.00,,,0.00,,2013-12-09 01:52:00,
2013-12-08 18:21:00,40.0,29.0,30.22,North,0,0.0,2.0,64,0.00,,,0.00,,2013-12-09 02:21:00,
2013-12-08 18:52:00,36.0,26.0,30.23,NE,39,2.0,3.0,68,0.00,,,0.00,,2013-12-09 02:52:00,
2013-12-08 19:22:00,36.0,28.0,30.24,NE,55,1.0,3.0,71,0.00,,,0.00,,2013-12-09 03:22:00,
2013-12-08 19:53:00,34.0,25.0,30.25,North,0,0.0,2.0,68,0.00,,,0.00,,2013-12-09 03:53:00,
2013-12-08 20:13:00,32.0,23.0,30.25,SSW,199,1.0,3.0,69,0.00,,,0.00,,2013-12-09 04:13:00,
2013-12-08 20:22:00,32.0,23.0,30.25,SSW,199,1.0,3.0,69,0.00,,,0.00,,2013-12-09 04:22:00,
2013-12-08 20:52:00,30.0,24.0,30.27,North,0,0.0,2.0,78,0.00,,,0.00,,2013-12-09 04:52:00,
2013-12-08 21:22:00,30.0,24.0,30.28,North,0,0.0,0.0,79,0.00,,,0.00,,2013-12-09 05:22:00,
2013-12-08 22:21:00,27.0,22.0,30.31,North,0,0.0,3.0,81,0.00,,,0.00,,2013-12-09 06:21:00,
2013-12-08 23:22:00,27.0,23.0,30.31,SW,222,2.0,4.0,85,0.00,,,0.00,,2013-12-09 07:22:00,
2013-12-08 23:42:00,27.0,23.0,30.32,SW,222,2.0,4.0,86,0.00,,,0.00,,2013-12-09 07:42:00,
2013-12-08 23:52:00,27.0,23.0,30.32,SW,222,1.0,3.0,86,0.00,,,0.00,,2013-12-09 07:52:00,